970728 118  0.3+  0.4+    980329 897  0.2+  0.4-    981024 372  1.8-  0.4+  

970728 118  0.0   0.9+    980329 897  0.4+  0.4-    981025 347  0.0   0.6+  

970728 118  0.5+  0.8+    980329 897  0.3+  0.6-    981025 347  0.4-  0.1+  

970730 057  0.3+  0.0     980402 372  0.9+  0.1+    981025 958 (3.2+  1.0-) 

970803 762  0.0   0.0     980403 360  1.0+  0.1-    981025 958  0.9+  0.2-  

970803 762  0.7-  0.2-    980403 360  1.1+  0.1-    981027 758  0.6-  0.3+  

970806 540  0.0   0.1-    980415 118  0.6+  1.3-    981028 758  0.7-  1.0+  

970806 540  0.2-  0.4-    980415 118  0.8+  1.2-    981102 860  0.8-  0.1-  

970808 616 (2.1+  0.4-)   980419 897  0.4+  0.9-    981102 860  0.5-  0.3-  

970808 616  1.2+  0.4+    980419 897  0.4+  0.8-    981102 860  1.1-  0.3+  

970808 616  1.2+  0.1+    980419 897  0.2+  0.7-    981103 750  0.9-  0.1+  

970808 118  0.3+  0.3+    980425 958  1.7+  0.3+    981103 750  0.5-  0.3-  

970808 118  0.2-  0.0     980425 958  0.1+  0.6-    981103 750  1.5-  0.6-  

970808 954  0.4-  0.5+    980425 372  0.5+  0.0     981103 750  0.4-  0.1-  

970808 118  0.0   0.0     980429 372  0.6+  0.5-    981105 347  1.2-  0.8+  

970808 954  0.1-  0.3+    980503 118  1.0+  0.6-    981105 347  0.4-  0.3+  

970808 954  0.4-  0.8+    980503 118  1.1+  0.8-    981105 347  0.4+  0.0   

970809 118  0.1+  0.0     980503 372  0.7+  0.2+    981107 958  0.1-  0.3+  

970809 118  0.1+  0.1+    980507 958  0.7+  1.7-    981107 958  0.1-  0.7+  

970809 118  0.1+  0.0     980507 958  1.6+  1.2-    981107 958  1.2-  0.7+  

970809 118  0.1-  0.1+    980509 958  0.6+  0.7-    981108 360  0.1-  0.6+  

970809 557  0.0   0.1+    980509 958  0.9+  1.0-    981108 360  0.0   0.3+  

970809 557  0.1+  0.0     980512 118  0.5+  1.3-    981108 372  0.9-  1.4+  

970810 118  0.3-  0.1+    980512 118  0.7+  1.1-    981108 355  0.1-  0.4+  

970810 605  0.7-  1.1-    980513 758  0.6+  1.2-    981108 355  0.3-  0.9+  

970810 046  0.3-  0.4+    980513 758  0.5+  1.0-    981108 355  0.1-  0.3+  

970810 046  0.3-  0.1+    980513 758  1.1+  0.5-    981110 372  0.2-  0.2+  

970810 046  0.3-  0.5+    980519 372  0.3+  0.3+    981110 504  0.9-  0.0   

970810 118  0.2-  0.2-    980520 897  0.6+  0.3-    981110 504  0.5-  0.3+  

970810 046  0.3-  0.4+    980520 897  0.5+  0.1-    981111 897  0.4+  1.2+  

970810 605  0.1-  0.9-    980520 372  1.2+  0.8-    981111 897  0.1+  1.4+  

970811 118  0.6-  0.5+    980524 958  0.2-  0.6-    981111 046  0.1-  0.5+  

970811 118  0.6-  0.4+    980524 958  0.4+  0.7-    981111 046  0.1-  0.5+  

970811 118  0.6-  0.0     980524 958  0.1+  1.1-    981111 046  0.1-  0.5+  

970811 118  0.4-  0.4+    980527 372  0.9+  0.4-    981111 504  0.5+  1.0+  

970812 118  1.5-  0.2-    980528 118  0.7+  0.7-    981111 504  1.4+  1.1+  

970812 046  0.4-  0.1+    980528 118  0.7+  0.9-    981111 504  0.7+  1.2+  

970812 046  0.6-  0.4+    980529 118  0.8+  0.7-    981111 504  0.3+  0.9+  

970812 046  0.4-  0.2+    980529 118  0.5+  0.8-    981112 900  0.1+  0.8+  

970812 118  1.4-  0.1+    980603 360  0.7+  0.2-    981112 900  0.2-  0.6+  

970813 118  0.6-  0.1+    980603 372  0.5+  0.1+    981112 351 (0.0   2.3+) 

970813 118  1.1-  0.3+    980603 360  0.7+  0.2-    981112 351  0.2-  0.3+  

970813 118  0.9-  0.0     980604 958  0.6+  0.5-    981112 351  0.1+  1.2+  

970817 367  0.8+  1.9-    980604 958  0.2+  0.5-    981112 351  0.4+  0.6+  

970817 367  0.8+  1.6-    980605 372  0.8+  0.2+    981112 750  0.5-  0.7+  

970817 367  0.3+  1.5-    980613 958  1.3+  0.7-    981113 750  0.1+  1.1+  

970818 367  1.3-  0.1+    980613 958  0.8+  0.8-    981113 750  0.2-  0.7+  

970818 367  1.1-  0.2+    980615 958  0.8+  0.5-    981114 402  0.2+  0.4+  

970818 367  1.4-  0.7+    980615 958  1.2+  0.2-    981114 402  0.3+  0.5+  

970819 762  0.6-  0.2+    980616 958  1.2+  0.3-    981114 402  0.5+  0.5+  

970819 762  1.3-  0.0     980617 958  1.0+  0.3-    981118 118  0.5+  1.1+  

970820 402  0.7-  0.0     980617 360  1.4+  0.6+    981118 118  0.2+  0.6+  

970820 402  0.7-  0.0     980617 360  1.3+  0.6+    981121 958  0.1-  0.7+  

970820 402  0.6-  0.0     980617 372  0.1+  0.1+    981121 958  0.4-  0.1-  

970820 118  1.2-  1.2-    980618 958  1.3+  0.5-    981122 958  0.1+  0.1+  

970820 118  1.3-  1.1-    980618 958  0.8+  0.4-    981122 504  0.3+  1.6+  

970821 372  1.2-  1.0+    980618 958  1.7+  0.1+    981122 504  0.4+  0.4+  

970822 360  0.6-  0.3+    980619 292  0.7-  1.6-    981122 504  0.4+  0.5+  

970822 360  0.6-  0.2+    980619 292 (0.3-  2.5-)   981122 504  0.1-  0.8+  

970823 628  1.1-  0.2+    980620 958  1.3+  0.0     981122 958  0.1+  1.1+  

970823 628  1.1-  0.1+    980620 958  1.4+  0.4+    981123 897  0.7+  0.6+  

970823 628  1.4-  0.6-    980620 897  1.3+  0.0     981123 360  0.0   0.7+  

970823 628  1.9-  0.0     980620 897  1.5+  0.6+    981123 360  0.1+  0.7+  

970824 360  0.7-  0.6+    980623 752  0.9+  0.4+    981123 897  0.5+  0.4+  

970824 360  0.6-  0.6+    980623 752  1.5+  0.1+    981123 958  0.3+  0.5+  

970824 900  0.4-  1.6+    980623 752  1.1+  0.2+    981123 958  0.3-  1.2+  

970824 900  0.9-  1.3+    980623 752  0.9+  0.0     981123 750  0.4+  0.9+  

970824 402  0.9-  0.4+    980625 017  0.4+  0.4-    981124 750  0.5-  0.9+  

970824 402  0.8-  0.5+    980625 017  0.5+  0.5-    981124 750 (0.1-  2.9+) 

970824 402  0.9-  0.5+    980625 017  0.4+  0.4-    981126 351 (2.2+  3.3+) 

970824 372  1.3-  0.9+    980625 017  0.4+  0.6-    981126 351  1.1-  1.4+  

970824 628  1.7-  0.9+    980625 017  0.3+  0.5-    981205 958  0.5-  0.8+  

970824 628 (2.9-  0.0 )   980625 017  0.5+  0.6-    981205 958  0.6-  1.3+  

970824 628  0.8-  0.9+    980625 017  0.4+  0.6-    981206 504  0.1+  0.2-  

970824 628  1.4-  1.2+    980625 017  0.3+  0.6-    981206 504  0.1+  0.1-  

970827 367  0.3-  0.2+    980625 017  0.4+  0.5-    981207 958  0.0   0.5+  

970827 367  0.8-  0.1+    980625 017  0.7+  1.1-    981207 958  0.9+  0.3+  

970827 367  0.7-  0.3+    980625 017  0.9+  0.9-    981211 372  0.1-  1.0+  

970828 897  0.7-  0.8+    980625 017  0.9+  0.8-    981212 360  0.1-  0.3+  

970828 897  1.5-  0.0     980625 017  0.6+  0.7-    981212 360  0.3-  0.2+  

970829 628  1.2-  1.1-    980625 017  0.6+  1.0-    1999/                   

970829 628  1.7-  0.5-    980626 017  0.5+  0.8-    990509 844  1.4-  1.9+  

970829 628  1.4-  0.0     980626 017  0.3+  0.9-    990509 844  0.4-  1.6+  

970831 628  0.4-  0.3-    980626 017  0.6+  1.0-    990509 844  0.3+  1.5+  

970831 628  0.6-  0.5-    980626 491  1.3+  0.3+    990706 844  1.8-  1.3+  

970831 628  0.9-  0.6-    980626 491  0.1-  0.3-    990706 844 (3.2-  2.1+) 

970831 628  0.4-  0.7-    980626 491  1.1+  0.9-    990710 467  1.5-  0.9+  

970903 118 (6.0-  0.3-)   980627 372  1.0+  0.5+    990710 467  1.1-  0.6+  

970903 118 (6.5-  0.0 )   980627 126  0.3+  1.6-    990710 467  1.7-  0.9+  

970903 118 (6.5-  0.1+)   980628 126  1.0+  1.2-    990805 844 (4.4-  4.3+) 

970904 402  0.3-  0.4+    980628 958  0.9+  1.3-    990805 844  1.9-  0.4-  

970904 402  0.5-  0.1+    980628 958  0.8+  0.5-    990805 844 (1.9-  2.4+) 

970904 402  0.5-  0.3+    980702 897  0.2-  0.5-    990816 844  1.3-  1.5+  

970904 118  0.4-  0.0     980702 897  0.6+  0.3-    990816 844  1.5-  1.9+  

970904 118  0.5-  0.3-    980702 360  0.3+  0.0     990816 844 (2.3-  1.3+) 

970906 628  0.6-  0.7-    980702 360  0.3+  0.1+    990910 834  1.8-  0.5+  

970906 628  0.4-  0.4-    980702 372  0.0   0.3+    990912 834 (2.4-  0.7+) 

970906 628  0.6-  0.3-    980703 367  0.6+  0.3+    990917 834 (2.5-  1.1+) 

970907 118  0.1-  0.2+    980703 367  1.0+  0.1+    990917 834 (2.4-  0.9+) 

970907 118  0.0   0.0     980703 367  1.0+  0.3+    990930 834 (0.9-  4.4+) 

970908 367  0.1-  0.2+    980703 351  0.8-  0.0     990930 834 (1.6-  2.7+) 

970908 367  0.2-  0.1+    980703 351  0.1+  0.6-    991006 432  1.3-  1.9+  

970908 367  0.2+  0.1+    980703 351  1.1+  0.7+    991009 432  0.8-  1.2+  



NAKANO

         **** Don't distribute anyone except personal use only ****

                (C) Copyright 2000 OAA/ComputingSection

write mail from CFAD0::NAKANO on 2000-12-24 02:39:41(JST).

 



    C/1997 J2 (Meunier-Dupouy) 

Epoch 1998 Mar. 8.0 TT = JDT 2450880.5  

T 1998 Mar. 10.44303 TT                                 Nakano

q   3.0511343            (2000.0)            P               Q

z  -0.0001989      Peri.  122.67426     +0.47167411     +0.71413877

 +/-0.0000006      Node   148.84466     -0.57631662     -0.19428150

e   1.0006068      Incl.   91.27333     +0.66736998     -0.67250317

From 1298 observations 1997 May 5-1998 Dec. 12, mean residual 0".68.



    C/1997 J2 (Meunier-Dupouy) 

Epoch 1998 Mar. 8.0 TT = JDT 2450880.5  

T 1998 Mar. 10.44326 TT                                 Nakano

q   3.0511333            (2000.0)            P               Q

z  -0.0001983      Peri.  122.67431     +0.47167473     +0.71413836

 +/-0.0000007      Node   148.84466     -0.57631679     -0.19428099

e   1.0006052      Incl.   91.27333     +0.66736939     -0.67250375

From 1280 observations 1997 May 5-1998 Nov. 26, mean residual 0".68.

